User: anonymous   Login
Location: Mascot Post Office (historical)
(40.2645°N, 99.5462°W)
Time: 07:47:04
(UTC+00:00)
Language:

MetOp-A - Orbit

View from above orbital plane
View from above orbital plane
View from above satellite
View from above satellite

Ground track
Ground track

The orbit data is extracted from the following two-line orbital elements,

1 29499U 06044A   20272.92900976 +.00000014 +00000-0 +25759-4 0  9999
2 29499 098.5122 316.1176 0000978 066.2333 106.9482 14.21490405723400
Epoch (UTC): 28 September 2020 22:17:46
Eccentricity: 0.0000978
inclination: 98.5122°
perigee height: 819 km
apogee height: 821 km
right ascension of ascending node: 316.1176°
argument of perigee: 66.2333°
revolutions per day: 14.21490405
mean anomaly at epoch: 106.9482°
orbit number at epoch: 72340

The dashed part of the orbit path shows where the satellite is in the earth's shadow,  

DLR